GFSSW_250_spd_219.txt.gz
Wind_Speed
86 89 92 95 97 91 85 80 77 73 72 71 71 68 61 54 50 46 47 44 45 52 55 60 66 72 72 77 83 91 94 87 90 100 100 98 93 88 83 77 72 70 67 68 63
90 94 97 98 98 91 90 85 82 77 74 71 70 67 61 56 51 48 49 41 46 51 55 61 65 70 71 77 80 86 89 87 91 100 106 104 96 92 86 80 76 73 72 68 65
94 99 100 101 97 94 92 88 85 79 77 71 70 66 60 56 52 55 44 47 46 49 56 60 65 67 72 77 77 78 85 92 96 98 107 107 99 91 90 84 80 79 77 73 70
99 102 99 98 97 97 92 89 84 80 77 73 69 65 59 55 55 54 50 50 48 50 56 60 63 66 70 76 81 80 87 94 96 101 104 106 102 97 93 90 85 82 82 75 69
102 103 99 100 98 97 93 88 85 81 77 72 67 62 58 52 61 54 52 51 49 50 54 58 61 65 67 77 83 83 87 95 97 99 105 106 105 101 94 93 88 86 81 77 73
105 102 99 100 97 93 92 89 84 81 78 73 66 59 53 55 62 49 53 51 50 49 55 58 60 65 69 75 83 85 90 93 98 100 104 104 107 105 101 96 96 92 84 81 78
104 102 102 101 96 94 90 89 84 81 78 75 66 56 50 58 61 54 51 52 50 49 53 59 63 65 68 75 82 90 93 96 99 103 104 106 104 104 106 103 97 92 91 83 81
102 102 103 100 97 93 90 87 84 80 78 73 66 52 53 56 56 59 48 53 50 52 53 59 63 65 68 74 84 90 96 95 94 98 100 106 104 103 106 106 101 99 90 87 83
104 104 102 101 99 94 89 85 82 78 75 71 64 49 53 54 54 56 50 51 53 52 53 58 61 63 69 72 81 89 93 89 89 92 97 104 106 103 102 106 104 99 94 90 86
105 105 103 103 100 91 86 82 81 77 73 68 60 48 49 50 51 53 51 53 51 55 54 56 59 62 65 70 73 80 86 91 94 90 92 98 109 106 103 104 105 105 95 94 88
106 105 106 105 99 90 84 80 77 77 66 63 51 49 47 49 50 53 53 54 53 54 51 57 59 56 61 71 79 84 87 91 97 92 91 95 107 111 105 105 102 103 103 103 96
107 107 108 104 96 90 82 78 72 70 73 55 51 48 49 46 53 54 49 52 55 52 57 60 50 53 68 74 78 85 87 93 97 96 94 93 91 97 105 106 104 103 100 100 96
108 109 108 102 95 88 83 76 75 71 59 53 48 48 47 48 52 52 49 51 51 52 54 56 49 66 67 74 78 82 89 92 93 96 94 99 98 100 98 93 95 100 96 94 97
111 112 107 99 92 88 82 77 73 68 61 49 46 44 45 46 49 50 50 48 50 52 55 51 58 63 66 71 78 81 87 94 99 99 91 103 96 98 92 99 93 91 91 91 93
114 114 104 96 91 87 80 78 73 68 57 49 45 45 42 42 46 47 49 49 50 55 51 39 58 61 64 66 77 81 86 93 99 100 96 104 104 92 95 93 89 93 91 92 93
116 109 103 96 89 85 79 77 70 63 55 48 45 44 42 40 40 42 45 47 50 54 48 54 61 66 63 70 77 88 89 92 100 103 105 91 105 101 89 86 83 85 91 98 96
116 107 102 97 89 84 80 76 68 60 54 50 46 42 40 37 37 37 39 43 49 52 50 57 61 63 68 72 78 86 92 91 100 107 106 101 95 109 96 92 87 87 87 87 88
112 108 102 97 89 86 81 73 65 58 54 50 46 42 38 36 35 34 33 38 43 46 49 57 62 61 67 69 74 82 95 95 93 99 99 101 95 81 106 106 97 92 90 88 84
113 108 106 95 90 88 80 68 64 59 54 50 46 42 36 34 34 31 31 33 39 47 48 53 59 64 68 73 77 80 90 98 93 91 96 98 96 88 82 98 103 98 95 94 92
114 106 101 99 96 88 78 68 63 59 53 49 47 42 35 34 32 28 28 32 37 40 44 52 57 64 70 76 77 83 90 97 96 89 89 96 98 91 89 83 86 97 101 100 98
113 108 103 101 94 87 77 67 61 56 51 49 45 41 35 33 30 27 26 29 32 36 40 47 56 61 70 73 74 79 80 88 89 87 85 87 96 95 93 91 84 82 91 95 95
111 108 103 99 90 81 74 67 61 54 51 48 44 39 35 31 28 25 26 26 28 34 40 44 49 60 68 70 74 76 77 80 85 82 84 84 88 96 92 92 87 81 77 74 71
113 109 101 97 93 83 72 64 58 53 50 46 44 38 34 29 28 24 26 23 28 34 38 44 48 60 71 77 78 78 77 76 78 82 83 88 90 87 94 91 89 85 78 74 70
113 107 102 97 91 81 72 64 55 51 49 46 42 39 33 28 27 23 23 23 27 33 38 43 46 55 61 71 75 75 74 73 73 74 77 81 90 97 88 91 90 87 82 73 68
112 105 104 94 88 78 69 62 56 51 46 45 42 38 33 27 26 23 23 23 25 29 35 42 47 52 58 68 74 76 76 75 71 71 74 79 85 94 96 86 89 87 85 80 72
110 107 101 92 85 74 66 58 54 49 47 43 41 37 32 27 26 22 23 24 25 28 34 40 45 48 54 62 70 75 75 75 74 71 72 78 82 84 94 92 87 86 82 82 79
111 106 98 91 80 71 62 55 52 48 44 41 40 36 31 27 25 23 23 21 23 29 32 37 43 51 52 58 67 75 77 78 73 67 65 68 75 78 84 96 93 88 84 81 79

GFSSW_250_spd_222.txt.gz
Wind_Speed
83 86 89 91 94 98 99 98 95 92 86 83 76 72 68 64 62 56 57 48 40 46 48 52 57 62 64 63 72 78 78 83 87 91 92 99 98 100 93 86 80 77 73 71 68
85 88 94 95 98 101 100 99 97 90 85 78 73 68 67 62 59 59 55 45 38 43 47 52 56 61 62 65 70 75 72 81 88 95 94 100 102 98 97 90 82 78 74 72 71
86 90 97 99 101 103 100 99 93 88 84 77 74 69 66 62 63 61 54 45 40 43 50 51 56 58 61 64 66 69 70 84 92 97 96 99 103 100 95 91 88 80 78 79 77
89 94 100 101 102 103 101 98 90 89 85 79 72 69 66 63 63 60 54 46 41 42 50 51 54 56 59 62 66 69 75 84 94 98 99 97 101 99 96 91 90 88 82 80 76
94 100 103 105 105 103 98 94 92 91 85 76 71 68 64 64 67 59 54 46 43 43 49 51 52 57 57 63 68 69 80 86 94 98 98 98 98 99 98 95 92 87 90 81 77
98 103 105 104 104 98 97 95 95 89 82 76 69 67 65 64 67 57 55 49 43 45 48 50 49 56 58 63 64 67 81 88 94 98 98 99 100 96 99 99 96 90 88 90 82
101 106 106 105 100 95 96 97 92 88 81 73 68 68 68 69 67 57 47 52 44 49 48 49 50 53 57 65 65 71 81 90 94 95 98 98 100 93 95 102 99 94 91 89 89
102 104 104 101 97 98 97 94 86 82 76 73 68 65 65 63 58 54 43 52 47 48 50 51 53 53 57 63 67 72 83 89 92 91 96 99 99 98 98 101 103 100 96 91 89
102 105 103 99 100 99 96 89 84 77 74 70 67 64 62 58 56 50 45 50 50 50 52 53 54 56 59 62 66 70 74 82 88 90 94 99 97 98 99 97 101 103 101 98 92
102 101 100 100 101 100 96 86 86 76 72 70 66 60 52 49 50 48 47 52 50 48 50 53 55 56 55 56 54 60 68 77 86 91 93 92 96 98 97 99 99 102 102 101 98
99 100 103 103 104 100 92 86 84 88 68 71 66 53 48 50 49 46 47 49 48 48 50 55 53 48 44 53 67 71 72 80 92 94 93 92 97 100 99 97 99 101 102 102 96
99 102 105 106 104 98 89 85 79 76 76 68 58 51 48 49 47 44 46 47 47 48 53 51 38 45 62 62 64 66 70 77 89 97 94 96 95 99 97 97 99 104 103 101 98
104 105 106 106 102 96 91 87 82 77 71 63 54 50 46 46 47 41 45 45 47 49 52 47 43 62 61 63 64 65 66 74 85 96 94 96 98 96 94 96 99 103 103 102 101
106 109 109 108 102 95 92 89 85 77 66 56 51 44 43 44 43 43 46 47 47 50 50 46 55 58 61 64 65 66 66 73 83 93 97 96 93 94 90 92 94 99 102 97 96
112 111 107 102 102 95 94 90 82 73 62 51 49 43 41 40 42 44 45 48 49 46 44 46 58 59 62 62 67 64 69 71 84 91 98 98 96 92 95 88 87 91 100 104 103
113 110 108 104 100 96 94 91 80 72 60 51 46 43 37 37 39 42 44 47 48 42 39 49 55 57 58 66 65 72 72 74 80 91 100 99 94 91 91 83 82 85 91 101 95
115 111 108 106 101 98 94 91 79 71 57 54 49 41 39 35 37 37 38 42 45 43 38 48 53 54 59 64 69 73 77 81 84 94 98 98 99 85 89 88 85 88 93 93 88
121 115 112 108 101 99 95 88 81 71 61 53 48 43 39 36 34 31 34 37 41 44 42 46 53 51 56 63 66 71 75 82 85 87 90 94 92 88 89 87 85 89 88 87 82
119 118 114 112 104 100 97 84 78 70 61 55 47 43 40 36 33 28 30 32 37 41 42 45 53 55 60 64 69 72 77 80 82 82 83 93 89 87 87 86 83 89 87 88 84
121 118 113 109 103 101 98 83 75 67 60 54 48 43 40 37 31 26 28 26 28 33 37 42 50 54 63 68 68 71 74 80 83 82 81 85 89 88 88 85 86 88 91 92 94
122 119 113 106 102 101 97 83 74 66 61 54 47 41 39 37 31 28 27 26 25 29 35 42 52 56 64 65 66 71 76 81 82 80 79 80 88 93 91 91 86 90 86 82 84
120 115 112 105 103 101 93 82 74 66 61 54 46 40 37 39 31 29 27 23 22 27 31 37 47 55 59 62 64 69 73 75 77 79 79 77 82 91 93 92 92 83 92 88 82
128 117 114 110 106 99 88 79 72 65 61 55 46 39 36 37 34 30 25 23 22 25 29 34 44 51 59 65 68 69 70 73 78 83 82 78 78 86 93 94 91 89 81 93 88
123 121 114 114 108 97 87 80 71 62 59 54 46 39 37 36 36 30 25 22 22 25 27 33 41 46 54 60 66 67 69 70 72 76 76 71 70 77 85 92 93 88 86 80 84
126 126 119 116 107 94 83 77 69 64 56 51 44 40 38 36 35 29 25 21 21 23 26 31 42 49 54 60 67 73 74 73 69 70 72 74 74 76 80 84 90 91 85 83 79
123 131 124 118 105 91 81 72 68 60 58 49 43 40 38 37 34 27 24 21 21 21 25 28 40 49 52 61 69 74 75 74 70 67 69 72 73 75 84 84 84 91 88 83 80
135 133 130 114 102 90 80 70 64 62 53 49 41 40 38 37 32 25 23 21 20 19 26 31 38 47 53 57 65 72 72 73 70 63 63 66 71 75 79 85 87 84 90 86 82

GFSSW_250_spd_225.txt.gz
Wind_Speed
69 73 80 85 91 94 94 96 96 98 97 91 87 83 79 74 70 66 64 56 45 41 45 47 50 54 55 60 66 72 71 73 77 83 89 93 96 101 102 98 92 87 80 78 74
69 74 81 86 94 98 98 100 102 102 95 89 86 84 80 72 66 66 60 56 47 39 46 48 53 53 53 60 65 70 69 73 82 87 91 98 102 99 100 100 93 89 84 81 78
73 79 85 91 99 102 102 102 102 96 92 90 85 82 72 68 64 65 56 53 44 37 47 49 52 53 54 57 63 67 64 77 85 88 91 98 102 99 100 98 95 93 90 86 82
77 83 90 95 101 105 104 105 98 96 92 89 85 77 71 67 63 60 51 49 41 36 45 43 45 49 53 53 64 65 68 73 86 91 94 96 103 100 99 98 95 96 93 88 84
81 88 92 100 102 109 107 101 98 95 90 84 79 73 69 66 65 53 52 45 39 38 43 44 41 48 51 58 63 63 69 75 85 93 93 94 99 99 99 98 98 95 95 93 88
85 90 96 98 102 104 103 100 99 94 90 80 74 70 66 65 60 50 51 44 36 38 44 44 45 50 53 56 57 63 71 77 83 91 94 94 95 98 99 94 99 99 95 97 94
86 92 94 98 104 101 101 99 97 92 87 78 74 70 68 61 57 51 44 43 37 38 46 48 50 49 52 55 57 65 70 77 82 90 95 95 93 92 99 99 95 99 97 95 90
90 92 96 98 99 98 99 100 93 87 83 78 73 69 67 61 54 48 43 39 38 39 47 47 51 51 54 56 61 66 72 77 81 88 94 96 89 94 97 99 97 97 101 96 92
88 89 94 93 98 100 100 97 95 83 80 78 73 67 60 57 49 42 42 39 40 39 46 50 53 52 58 55 62 68 66 69 78 82 91 95 92 93 96 97 99 96 98 100 94
91 90 91 96 97 101 98 97 96 83 76 74 68 62 57 49 44 36 43 43 40 44 46 50 52 48 49 52 51 57 62 66 75 81 87 88 91 94 93 96 97 97 96 101 101
87 91 95 96 101 99 97 93 89 97 77 70 65 60 54 49 42 39 41 43 40 43 45 46 43 36 47 54 65 70 73 72 79 83 85 87 94 97 95 95 97 99 97 101 103
91 92 98 101 102 102 96 92 85 83 81 71 60 56 50 45 40 40 39 39 38 41 42 39 34 55 58 63 67 68 70 70 76 81 84 87 94 97 97 97 97 95 97 97 103
91 95 96 100 103 98 96 93 88 84 76 68 59 51 46 42 39 38 35 36 35 40 40 36 50 60 59 61 65 67 66 68 69 77 83 87 94 98 98 98 96 96 96 99 98
98 101 101 107 106 100 99 94 86 82 75 67 57 46 42 42 38 38 36 35 36 37 37 37 51 54 57 56 57 62 67 72 73 76 82 85 91 97 96 98 95 93 93 93 94
105 105 102 106 100 100 101 94 88 79 72 62 57 45 40 37 36 35 35 33 32 34 37 46 50 54 52 56 63 67 71 74 75 77 83 86 90 94 98 97 93 87 90 91 90
109 109 112 116 111 101 101 96 89 78 71 65 55 47 39 35 32 32 34 37 33 32 37 46 48 49 53 62 64 69 74 77 79 81 84 82 85 92 94 85 89 90 87 89 91
111 115 115 112 118 105 102 96 88 81 70 63 55 47 40 32 28 29 31 36 37 34 34 43 48 49 55 61 66 71 76 79 81 83 80 84 88 89 93 94 90 87 89 88 89
115 120 114 116 112 106 101 94 88 77 72 61 54 47 39 32 28 27 28 32 35 35 34 39 45 47 51 58 64 69 71 74 78 79 76 86 86 84 91 95 95 89 88 87 88
120 124 114 116 117 111 100 97 86 73 67 61 50 47 40 33 28 25 25 27 31 33 35 36 44 47 51 61 65 69 72 74 78 79 79 81 80 86 93 95 95 90 86 82 79
125 128 124 118 117 113 104 98 86 74 66 58 49 45 42 35 30 25 22 23 27 30 34 36 41 47 54 63 68 70 72 74 79 79 82 82 80 83 89 91 93 89 84 81 78
126 128 118 117 115 105 99 97 84 72 64 56 48 44 41 36 31 27 21 19 23 27 31 38 41 48 55 56 59 64 69 74 78 77 79 79 78 79 86 89 89 87 82 81 78
125 130 127 118 121 104 97 87 80 71 61 54 48 43 39 37 31 27 22 17 19 25 29 36 40 47 53 59 64 65 69 71 72 72 76 75 74 76 84 91 90 89 83 80 78
136 129 127 126 117 105 98 85 75 70 61 53 46 43 38 38 31 26 24 19 18 23 28 34 39 45 53 63 67 68 67 69 67 73 76 74 74 76 84 89 92 90 86 82 78
126 129 125 128 116 107 96 84 73 64 59 52 47 42 38 35 33 26 25 22 19 20 25 32 38 43 48 56 58 60 61 64 70 73 71 72 72 74 81 86 93 92 88 84 80
134 137 125 122 116 103 92 82 71 63 55 50 44 42 37 34 31 28 25 22 19 17 22 30 38 42 46 56 62 65 63 63 67 72 71 69 72 74 81 83 93 94 88 85 80
129 138 130 123 115 100 87 77 69 61 54 47 43 40 37 34 30 29 25 21 18 17 22 30 37 43 44 53 66 70 70 69 69 70 71 70 70 72 75 83 86 93 92 87 83
139 142 129 130 110 96 84 74 67 61 50 48 43 38 37 34 30 29 24 20 18 18 22 30 37 43 49 55 66 69 69 68 68 69 72 70 72 72 73 74 80 85 91 88 84

GFSSW_250_spd_228.txt.gz
Wind_Speed
60 66 70 76 81 85 90 94 96 99 96 95 94 90 86 84 79 72 66 61 57 50 48 50 55 57 56 56 63 69 68 68 71 77 85 90 93 96 99 101 96 90 87 83 79
62 68 74 78 83 87 94 98 99 100 99 96 97 94 89 81 73 69 61 57 53 48 47 50 55 56 55 60 60 66 64 65 76 82 88 90 93 98 99 99 101 92 90 87 81
69 72 80 86 89 93 97 101 101 102 100 99 95 90 85 77 69 64 55 51 47 42 45 48 52 55 57 60 61 61 60 74 79 82 87 92 94 96 98 100 102 102 95 90 87
76 82 84 87 91 93 98 98 100 104 100 99 92 87 80 73 64 57 50 51 46 39 43 46 47 51 55 56 62 63 67 76 80 82 86 93 95 95 98 98 102 105 104 98 88
78 83 86 87 91 94 97 96 102 104 103 98 90 85 76 70 63 54 53 51 43 40 45 48 45 51 49 57 62 61 69 76 78 82 85 92 96 95 99 101 101 102 101 102 95
81 82 86 89 92 97 97 97 102 103 101 93 88 83 74 66 61 52 47 49 41 40 47 51 48 53 55 54 55 60 69 77 80 84 88 90 96 97 100 102 101 99 101 102 102
83 85 88 92 93 94 99 100 100 99 98 89 84 80 73 65 61 47 43 44 42 41 44 49 51 54 54 56 58 65 69 75 76 82 88 91 96 96 98 100 103 98 98 98 99
83 86 89 92 94 95 100 103 100 98 96 89 83 78 73 65 55 48 43 40 41 41 42 49 50 53 57 58 64 66 72 73 74 80 88 93 91 100 100 98 104 102 97 100 96
89 90 94 94 92 96 98 106 103 93 96 90 83 77 72 62 49 45 39 36 39 42 42 47 51 54 59 59 65 69 63 65 72 75 85 91 94 98 101 97 102 106 103 98 99
91 90 93 93 93 98 99 102 109 97 90 89 82 75 69 56 47 42 35 31 34 41 41 46 48 54 60 60 51 55 60 66 71 74 81 89 91 98 100 99 99 103 104 101 98
86 93 90 93 96 97 98 99 98 103 99 90 81 73 66 55 44 37 32 29 30 37 36 41 43 49 55 58 63 67 71 74 75 78 82 88 92 95 100 102 99 99 104 106 101
89 91 93 93 94 98 98 101 97 95 94 87 77 70 62 54 42 37 30 27 30 30 33 38 44 56 62 63 68 70 73 75 79 80 83 88 89 92 96 99 98 98 103 106 106
89 91 94 94 95 100 100 101 99 99 93 83 76 66 59 52 44 36 32 26 29 30 30 38 52 57 60 61 66 65 68 72 74 76 81 87 89 92 94 98 98 95 99 103 104
89 92 92 95 97 101 100 103 102 98 90 84 75 64 55 49 42 38 31 26 28 30 31 41 52 53 56 54 60 63 70 76 78 80 80 84 85 91 91 94 95 96 96 98 99
90 90 90 92 96 98 101 104 103 97 91 82 74 61 53 45 40 35 31 25 24 30 35 41 46 46 50 57 60 62 69 74 78 81 80 83 84 85 92 94 94 95 95 93 96
88 92 91 94 98 102 103 105 104 96 91 81 71 59 48 40 38 35 28 25 24 26 34 40 42 44 53 60 60 67 72 78 82 84 83 81 81 88 88 82 90 95 93 92 90
89 91 90 96 102 104 108 104 103 95 88 78 69 57 46 37 33 31 27 24 23 23 32 39 42 45 53 59 61 66 73 79 82 85 76 83 84 85 84 85 92 96 94 92 91
87 87 92 98 101 109 113 106 103 94 87 76 67 55 44 36 30 28 25 23 23 25 30 40 44 46 53 57 60 63 68 73 76 76 75 82 78 78 78 80 87 94 98 97 95
89 90 90 97 107 112 108 107 101 94 84 76 62 51 42 36 28 24 22 23 23 27 30 37 45 48 52 61 64 67 66 70 74 75 80 78 74 75 77 79 84 90 95 93 91
88 88 90 99 107 117 112 105 99 90 81 70 60 50 40 35 27 21 21 23 23 27 30 33 41 49 54 62 65 66 72 73 74 76 78 75 75 77 80 83 84 88 88 92 93
91 87 101 103 110 114 114 107 99 88 79 67 58 49 40 33 26 20 20 21 23 26 30 34 38 48 50 54 59 64 67 70 73 75 72 74 74 75 80 82 84 86 87 89 90
93 95 106 116 118 112 111 104 99 87 74 64 55 46 39 30 25 21 19 20 21 23 27 32 38 43 48 53 62 69 67 68 68 69 71 73 72 78 81 81 84 85 87 88 87
94 95 110 116 127 114 107 104 97 82 71 61 52 43 38 30 24 23 20 20 19 22 26 30 36 42 49 55 59 61 64 67 68 71 72 74 73 77 81 80 82 84 88 87 85
99 100 109 119 122 116 105 100 89 77 67 58 50 42 34 30 25 22 23 19 18 21 25 27 30 40 51 54 53 55 60 63 66 69 71 74 74 75 78 78 80 84 87 89 85
99 108 112 126 126 115 106 96 86 74 62 53 46 43 32 29 25 23 23 19 17 19 23 26 31 39 48 52 56 60 61 61 63 65 68 71 72 73 76 78 77 83 86 88 87
102 111 118 127 133 116 105 93 83 70 61 51 44 39 33 27 26 25 22 20 16 18 22 26 32 37 46 53 58 62 67 65 64 64 67 70 71 72 75 78 79 81 87 87 87
108 115 120 126 134 130 104 89 78 68 56 51 44 37 31 27 24 25 23 21 15 17 23 28 32 36 45 54 58 66 67 68 67 65 66 68 71 72 73 76 77 78 84 88 87

GFSSW_250_spd_231.txt.gz
Wind_Speed
59 65 70 75 80 83 85 86 89 91 91 91 89 88 88 90 84 78 71 63 58 52 53 54 54 56 59 62 67 73 74 65 68 74 77 85 88 97 103 102 97 93 90 85 84
64 70 74 82 85 85 86 87 89 91 91 94 92 93 95 89 79 71 61 55 54 48 49 51 53 53 54 63 67 71 65 63 74 82 84 83 85 96 99 103 100 97 89 88 87
68 75 81 84 85 86 90 91 92 95 97 96 95 95 91 85 76 66 59 53 52 47 50 50 50 50 52 61 62 65 61 72 79 82 83 84 86 97 95 100 100 99 97 92 90
74 82 85 85 87 91 92 95 96 99 101 101 102 101 89 80 70 63 55 51 51 47 51 55 53 50 56 55 64 65 71 78 83 85 82 82 85 94 95 96 108 104 103 99 92
76 82 86 90 92 95 94 96 98 102 104 108 106 101 88 79 71 58 55 51 48 50 48 54 54 56 52 61 68 66 74 79 83 83 80 89 88 92 96 99 105 104 99 102 101
78 87 90 91 94 96 97 101 102 104 107 109 106 97 89 77 68 59 51 51 43 45 46 52 54 55 57 61 61 67 75 78 81 82 83 85 86 91 92 95 102 106 100 105 107
79 89 91 91 94 98 99 103 104 107 107 108 106 94 88 76 68 57 49 44 45 42 43 49 54 54 60 60 61 69 74 79 81 83 88 88 93 90 94 95 99 104 107 102 108
84 88 89 90 96 99 101 104 106 107 108 108 103 95 84 76 69 53 46 43 43 42 42 46 56 55 60 65 66 72 79 82 80 85 80 84 83 87 94 97 98 102 105 106 106
88 93 93 93 99 101 103 106 111 107 108 107 102 96 83 73 67 53 43 43 42 41 41 43 55 56 62 66 69 74 73 75 79 80 81 85 89 93 96 96 100 101 105 109 110
89 93 94 94 99 102 104 107 110 110 109 109 105 95 82 70 62 52 41 38 40 36 38 41 51 57 61 66 63 66 69 75 79 80 80 82 88 89 94 97 100 101 104 109 107
90 92 92 94 98 98 103 106 110 110 109 108 106 97 83 69 59 48 40 36 35 34 33 38 44 54 61 64 69 72 72 74 78 82 81 81 87 91 93 94 97 102 102 104 105
91 93 90 94 95 100 105 107 108 110 110 108 100 89 80 71 60 48 40 34 33 32 32 37 45 57 62 67 70 74 74 79 81 84 82 83 89 91 92 92 98 101 102 104 102
93 94 91 92 96 103 110 110 107 108 111 109 99 86 77 67 57 49 42 30 30 33 35 37 47 53 58 63 66 68 72 74 79 83 78 84 89 92 94 96 100 101 104 101 102
91 93 89 94 96 101 106 107 111 111 112 108 97 85 74 63 53 47 43 30 26 32 37 40 44 52 57 61 64 63 70 76 79 81 81 85 86 91 94 95 97 99 101 101 97
89 91 93 96 99 107 109 108 111 114 115 108 98 83 72 60 50 45 40 33 24 30 36 38 41 51 56 60 62 65 70 76 79 78 83 86 90 88 92 95 95 94 93 100 97
90 93 91 90 98 98 105 108 108 113 115 107 95 79 68 57 48 42 38 34 25 25 34 36 38 45 55 59 58 71 74 79 81 82 88 87 85 89 89 85 87 91 92 98 99
91 92 92 93 98 100 107 107 108 109 111 104 91 75 64 55 47 40 36 34 26 23 31 37 38 44 51 55 64 67 70 76 81 85 83 84 86 89 83 85 84 85 89 94 96
94 91 92 91 91 94 100 104 110 108 110 99 85 74 62 55 45 39 34 33 26 24 28 36 39 43 50 55 63 63 68 75 79 81 80 83 81 78 79 81 79 82 87 92 97
94 93 95 90 94 96 100 103 104 106 101 93 83 71 61 52 43 37 32 30 26 24 26 33 39 41 49 57 62 64 70 75 76 75 77 73 68 79 77 76 77 77 84 85 90
92 92 93 93 92 95 98 102 100 101 98 89 79 69 60 50 41 35 32 27 25 23 27 29 38 43 48 55 58 60 71 70 69 73 72 66 72 79 77 78 77 74 76 82 89
92 95 93 95 96 93 93 98 100 102 93 86 78 67 58 47 38 34 31 25 24 22 25 28 35 44 46 52 57 58 62 63 68 71 69 70 72 75 77 76 75 74 76 81 88
96 99 98 98 101 96 95 98 102 99 89 83 75 64 54 43 36 31 31 25 22 22 24 28 33 40 45 49 54 61 66 66 67 66 71 72 76 76 80 78 76 75 73 79 86
97 98 98 98 99 96 99 100 96 97 86 78 73 61 51 41 35 30 28 25 22 21 25 27 32 39 43 45 50 54 58 62 64 71 71 69 68 72 76 74 77 76 73 78 82
99 102 99 95 100 99 98 97 98 92 84 73 69 58 48 39 34 30 25 24 21 22 23 25 28 37 43 46 50 52 54 58 63 64 67 64 68 72 75 74 75 76 74 77 79
100 101 98 99 101 98 101 98 96 89 80 71 62 56 43 37 32 28 26 22 21 22 23 25 30 36 41 45 48 52 55 57 60 66 64 66 70 71 73 75 74 75 75 78 80
102 103 100 101 102 99 99 97 96 86 79 68 58 50 41 35 31 27 25 21 21 23 24 26 29 33 38 43 50 52 55 61 65 67 65 68 70 72 71 73 72 72 76 78 81
103 103 99 99 102 99 96 96 92 85 74 65 55 45 39 33 30 27 24 22 21 24 24 26 27 31 38 43 53 56 59 61 63 64 67 70 71 70 71 73 72 74 77 78 79

GFSSW_250_spd_234.txt.gz
Wind_Speed
50 56 62 67 71 76 78 81 84 85 86 90 90 88 87 87 85 81 74 69 64 58 51 51 52 56 57 59 63 68 71 61 60 69 75 88 82 78 91 100 97 93 91 80 82
54 60 66 70 74 78 82 85 86 88 89 91 94 93 91 89 84 82 73 68 62 56 52 50 52 54 53 59 63 68 63 58 68 79 87 89 80 76 91 92 102 100 94 85 89
56 61 66 69 75 79 83 88 90 93 94 96 96 96 96 92 81 81 73 64 58 51 49 48 51 51 53 56 57 65 60 68 73 80 88 86 82 85 88 89 93 104 99 92 95
60 65 70 74 80 82 86 91 93 96 99 101 101 100 97 89 82 83 73 60 56 48 45 47 50 51 54 54 60 64 68 72 78 86 87 86 86 86 86 85 94 109 104 101 97
63 68 74 76 79 84 86 91 97 99 102 103 103 101 99 90 92 81 69 60 54 47 40 46 50 52 55 58 61 59 69 76 82 85 89 92 91 91 81 91 94 104 105 105 100
66 72 77 81 85 87 88 92 97 101 106 106 106 105 100 92 92 81 67 57 52 44 39 43 48 49 54 57 56 65 75 79 84 85 90 92 90 93 87 91 93 100 105 107 107
70 76 81 83 89 88 88 94 100 105 107 109 110 108 98 98 93 77 64 55 49 43 37 36 45 47 52 57 62 71 76 79 81 84 88 93 96 93 93 94 93 98 102 112 110
74 80 85 86 85 88 92 96 102 107 110 113 111 107 102 99 92 74 62 52 47 41 33 33 41 46 51 59 66 72 77 77 79 85 90 92 91 92 99 96 93 96 103 109 109
78 85 86 86 87 90 94 98 102 109 112 114 112 110 107 100 89 68 56 47 42 38 31 30 40 45 49 58 65 69 71 74 86 86 89 88 88 91 92 88 91 92 100 106 105
81 86 88 88 89 91 92 97 102 111 114 115 116 111 104 101 83 66 52 45 40 32 31 29 36 45 48 54 56 65 74 79 84 86 87 86 88 90 91 95 94 93 96 103 102
84 87 86 87 88 92 94 95 103 108 117 116 114 112 111 110 81 64 50 42 36 30 29 27 33 44 49 55 65 68 78 80 82 85 85 82 88 90 93 93 89 89 91 99 101
87 87 87 86 92 95 100 104 107 113 118 118 114 110 111 105 79 62 48 39 34 29 27 26 32 42 46 55 64 69 76 77 84 86 85 89 90 92 90 94 90 97 95 98 103
88 87 89 89 93 96 100 105 110 115 119 120 116 114 110 97 74 60 48 39 31 28 25 26 30 37 41 52 62 67 73 82 82 85 86 92 94 89 89 95 89 92 88 92 103
88 88 88 90 90 95 104 108 112 117 120 120 116 117 109 97 70 56 46 38 30 25 26 25 28 36 41 50 58 63 71 81 84 87 86 90 89 85 86 92 90 88 96 95 93
87 88 91 91 94 98 104 109 114 120 124 123 120 116 121 89 66 53 46 36 29 24 25 26 28 35 43 51 56 64 73 79 85 85 85 83 87 81 89 94 90 88 97 86 91
87 89 92 97 98 101 106 111 115 120 122 122 120 117 110 80 61 52 45 36 28 25 22 27 28 37 45 48 54 62 69 77 80 84 80 82 79 88 87 88 87 88 92 87 96
90 92 96 97 99 100 107 113 117 118 124 119 121 117 102 75 60 52 45 35 27 23 22 26 31 36 45 46 52 59 66 76 82 84 78 81 85 87 85 92 89 90 91 88 100
94 93 97 97 97 101 106 114 117 119 123 121 118 117 94 71 58 49 43 34 25 22 21 26 32 31 40 47 54 61 69 74 76 72 74 84 82 81 85 91 89 91 92 89 101
95 95 97 98 101 105 109 113 116 118 118 121 119 112 84 66 57 47 41 33 24 20 21 24 29 32 37 44 51 57 63 70 74 76 81 81 77 82 83 89 87 87 84 81 85
95 98 98 102 104 106 110 113 113 117 117 119 116 103 79 65 55 47 38 31 24 18 19 24 28 31 34 40 48 54 63 66 69 76 79 76 73 77 81 84 85 82 76 73 78
97 99 101 104 108 108 110 112 113 115 116 118 111 96 74 62 53 46 37 29 22 19 18 23 26 29 32 38 46 49 52 59 67 76 77 74 76 76 76 80 82 80 74 71 71
96 99 101 108 109 108 109 108 111 111 111 114 108 86 71 60 52 43 38 27 22 20 18 22 26 29 32 35 40 45 52 59 64 69 67 68 70 70 72 78 82 77 71 70 70
94 96 102 104 106 109 108 106 108 108 110 107 103 81 65 58 49 42 36 28 21 20 19 21 25 29 31 34 38 43 45 52 57 59 61 67 71 71 74 77 82 76 71 68 69
96 98 98 102 107 109 105 106 105 107 107 104 92 74 60 56 48 42 33 27 21 19 20 20 25 29 31 33 37 43 45 50 52 57 65 70 70 71 75 78 79 76 70 67 67
96 99 106 104 103 106 104 103 104 104 103 98 82 69 60 52 46 40 34 25 22 20 20 20 24 28 31 32 34 40 48 52 54 60 67 67 70 73 76 77 75 74 70 69 68
98 103 106 105 103 103 100 103 104 104 100 90 76 64 57 51 46 38 31 25 24 23 20 20 20 25 29 32 38 41 47 53 57 60 59 61 65 68 73 72 72 70 69 70 70
101 103 105 103 102 100 99 102 100 100 96 84 72 61 54 48 43 36 29 26 26 25 22 20 19 22 28 34 41 48 50 54 56 58 53 58 62 68 71 70 71 70 68 68 69

GFSSW_250_spd_240.txt.gz
Wind_Speed
48 50 54 58 62 68 69 71 71 74 78 79 81 81 82 81 81 78 74 68 62 64 62 62 63 62 64 67 68 71 68 68 71 72 81 88 92 94 92 88 87 82 80 77 79
51 54 56 59 65 72 74 74 75 77 81 84 85 88 89 86 84 79 76 71 66 65 67 64 59 59 63 66 66 64 63 62 70 78 85 94 95 96 94 89 88 79 85 78 74
52 54 59 63 70 76 78 77 77 82 86 89 91 93 92 91 89 85 78 71 68 68 68 64 57 56 57 60 62 60 58 66 72 79 90 96 99 99 97 92 89 82 88 77 76
58 58 63 67 72 77 79 80 83 86 91 94 96 97 96 95 93 88 79 73 70 69 65 60 54 50 51 52 55 55 62 68 70 81 94 103 102 101 100 94 89 85 78 78 61
65 64 66 71 76 81 84 84 88 92 94 97 99 100 99 97 94 89 80 75 69 67 62 54 48 45 45 49 48 53 62 67 71 79 98 104 104 100 99 95 92 88 77 77 60
75 71 74 75 79 86 88 91 94 97 98 100 102 103 103 97 94 88 79 73 70 64 55 43 43 40 39 43 47 57 60 71 72 82 100 107 105 98 102 97 93 91 90 80 68
83 81 81 79 84 90 91 94 99 101 101 101 104 105 105 99 95 88 82 76 71 61 49 35 37 35 37 39 47 56 62 70 75 83 97 105 104 96 97 90 92 91 90 88 83
84 86 85 87 89 93 93 97 101 105 105 106 108 109 106 100 95 88 82 74 68 54 43 31 33 31 33 38 46 54 62 67 77 84 94 105 102 102 99 102 97 96 93 92 88
86 88 87 91 92 97 98 101 105 109 109 111 111 110 106 100 92 85 78 71 60 48 37 27 30 30 32 38 44 53 64 71 82 86 97 103 102 102 98 95 95 97 97 92 88
90 89 91 92 95 99 100 104 108 113 115 113 112 112 105 100 89 84 78 69 50 40 35 25 28 27 30 37 47 56 66 77 82 88 95 99 102 102 97 96 100 100 97 92 92
92 94 95 95 98 102 102 101 105 114 116 113 113 109 108 100 94 86 79 63 49 39 34 26 24 26 29 35 44 55 66 76 82 87 92 94 101 101 96 95 97 98 98 96 93
97 97 98 101 104 106 105 109 110 111 116 116 114 110 109 102 94 84 75 60 49 41 34 26 23 25 29 35 45 53 65 77 84 86 85 91 97 99 99 97 100 102 97 97 95
100 103 104 106 108 110 112 112 115 116 118 118 115 110 109 100 94 85 71 59 51 40 34 25 21 23 28 35 43 52 64 78 83 82 84 90 96 96 95 100 101 96 97 98 96
104 106 110 108 111 113 115 117 118 119 119 119 116 111 110 99 92 82 69 59 51 40 30 24 21 22 27 33 43 53 63 74 80 79 89 90 94 94 94 95 97 99 101 99 97
106 110 112 113 114 115 117 118 121 121 124 118 116 109 107 94 89 83 66 58 50 39 27 21 19 21 24 30 40 52 63 72 74 79 88 88 90 89 92 94 95 94 96 93 92
110 113 116 120 119 119 123 121 123 124 123 121 116 112 104 94 88 83 67 57 48 37 25 18 18 20 23 31 39 49 61 68 74 82 88 88 85 89 87 86 91 96 95 95 94
112 117 118 121 120 121 124 123 125 122 120 119 117 112 103 96 87 81 69 57 47 36 24 17 17 19 21 30 37 47 58 64 72 77 83 85 85 85 83 91 93 95 98 95 94
115 119 121 122 122 121 125 122 124 120 118 117 114 108 100 94 85 81 69 57 46 35 25 16 15 18 20 27 35 43 49 58 63 68 78 83 80 85 88 92 96 99 97 92 88
116 122 123 122 124 122 123 123 120 117 113 114 113 106 100 93 86 81 68 56 45 34 24 16 14 17 18 25 32 39 44 51 60 67 73 77 80 83 87 92 93 93 91 85 84
118 122 124 124 126 124 122 121 121 117 113 111 109 103 101 95 86 80 66 53 44 34 24 16 13 15 17 23 29 37 40 46 54 64 69 76 82 86 89 92 90 89 84 82 84
122 125 126 128 128 126 124 122 121 112 111 107 105 105 98 95 87 78 65 51 42 33 24 16 12 14 17 19 27 32 38 41 51 60 68 72 80 84 85 87 85 84 84 83 83
123 126 128 129 128 126 121 121 119 110 109 106 105 102 98 97 87 76 63 49 39 30 24 17 12 13 15 18 24 30 37 43 51 61 66 68 78 81 82 85 83 85 83 84 85
122 122 127 129 128 125 119 116 117 113 108 107 104 101 97 97 87 73 62 48 38 27 24 18 12 13 16 17 23 30 37 42 48 57 62 68 75 78 82 82 81 84 85 86 85
123 124 128 128 127 121 118 118 117 115 108 104 103 102 100 94 81 72 59 48 37 26 21 17 14 13 16 17 22 28 35 41 46 51 58 65 73 77 80 80 80 85 84 82 85
127 126 128 127 124 121 119 117 118 117 108 105 102 100 100 92 79 70 57 47 37 27 21 17 15 14 15 19 22 29 36 41 47 50 55 65 72 76 79 80 81 83 83 82 81
128 128 126 126 122 119 117 115 118 114 111 108 101 101 99 88 78 68 57 46 36 27 21 16 14 16 15 18 23 30 36 39 44 46 52 61 69 74 78 80 80 81 79 78 78
127 126 124 122 120 117 118 114 114 112 111 104 101 101 96 86 75 64 55 45 36 28 22 17 16 17 17 18 24 31 36 40 41 44 49 57 64 69 75 77 78 80 80 78 77

GFSSW_250_spd_243.txt.gz
Wind_Speed
67 68 68 67 68 70 72 76 78 78 79 83 85 87 86 85 84 81 80 76 72 70 68 65 62 62 67 71 74 76 74 72 72 71 80 85 89 93 93 94 90 87 83 77 72
74 72 73 73 75 76 77 79 82 84 86 87 90 91 92 90 90 85 80 78 76 71 66 63 62 62 64 68 67 67 65 71 74 74 82 89 95 96 95 97 92 89 86 76 76
78 81 79 79 81 82 84 85 88 89 90 93 95 94 96 94 92 90 85 80 78 72 67 65 64 62 61 61 62 60 61 71 76 79 83 87 96 99 100 99 93 90 88 76 66
78 81 84 86 88 90 89 89 92 95 95 98 100 100 99 100 99 92 83 81 77 73 69 66 61 59 58 57 56 55 62 70 75 81 82 85 94 101 102 100 97 92 88 71 64
79 83 87 90 91 95 93 95 98 100 100 104 104 103 101 104 99 91 84 80 75 73 72 66 60 56 52 51 48 52 61 67 76 81 81 88 95 101 103 103 100 95 90 78 60
81 84 91 93 96 100 101 104 104 106 106 109 108 105 104 103 97 89 84 79 77 75 69 64 57 48 45 45 44 53 57 65 74 78 81 88 94 100 104 106 102 97 95 92 66
83 87 92 97 102 105 108 108 108 110 112 112 110 106 109 105 98 89 86 80 78 74 69 61 53 43 40 39 45 49 55 65 70 76 84 91 96 101 103 105 102 99 97 94 68
85 89 96 100 102 108 113 114 112 114 116 114 112 112 112 105 100 91 85 82 80 73 65 54 46 39 34 36 40 46 53 61 69 77 85 92 96 100 106 107 103 102 99 95 82
87 90 96 100 105 109 114 120 118 118 122 117 115 114 112 108 100 90 87 83 77 72 58 46 37 31 28 29 35 42 50 60 71 78 89 91 99 102 106 105 102 104 101 96 92
91 91 98 103 107 111 116 122 125 125 124 121 117 117 115 112 98 91 90 83 75 66 52 39 31 27 26 26 34 44 53 63 71 80 88 91 98 102 106 105 102 100 102 100 97
95 93 98 104 109 113 118 123 128 130 128 126 117 118 115 107 98 93 91 79 72 60 45 33 26 21 23 24 33 43 51 61 71 79 88 87 96 99 99 94 99 104 105 102 98
97 97 99 107 112 115 120 128 129 132 128 131 121 119 115 112 101 95 90 77 70 54 42 31 24 21 20 23 31 41 51 62 69 76 83 86 94 94 97 101 109 112 107 103 96
99 100 101 107 112 117 124 132 135 135 131 131 121 118 114 112 101 97 88 77 65 49 41 32 24 20 18 23 29 38 49 58 64 75 82 87 93 94 98 102 106 97 99 99 96
101 103 105 110 113 118 125 132 137 136 135 131 123 118 113 111 101 94 86 77 63 46 40 32 24 18 18 24 29 36 46 55 60 73 80 85 89 94 95 97 95 95 99 99 99
102 106 107 111 116 121 129 135 140 138 138 132 122 115 110 107 102 95 85 77 62 46 38 32 24 16 19 23 29 36 43 49 62 72 78 82 88 92 92 92 91 96 98 100 95
104 106 110 114 119 125 130 140 141 136 138 132 120 117 114 106 102 95 84 74 61 49 37 31 24 15 18 21 28 35 41 49 60 70 75 81 86 90 87 86 93 94 94 98 99
108 110 111 118 120 126 133 143 140 135 133 127 118 112 111 102 102 96 84 75 59 48 40 30 24 17 16 20 25 33 42 49 58 66 73 80 84 88 87 93 93 94 97 100 99
109 112 115 121 123 129 138 141 143 137 136 123 116 111 108 103 100 95 86 78 62 49 41 30 21 17 15 19 25 32 39 47 54 62 71 78 82 88 88 91 93 94 94 93 97
111 114 120 120 125 129 139 142 144 136 129 120 108 110 107 101 98 94 86 78 62 49 40 29 23 15 14 18 23 31 37 45 54 64 72 77 83 84 87 90 94 93 91 94 92
115 116 121 124 126 131 141 146 147 134 124 110 102 107 106 100 98 93 85 75 62 48 40 29 22 14 12 16 21 28 36 42 53 61 67 77 81 83 86 88 91 90 94 95 94
116 120 122 126 130 137 141 146 146 132 119 105 100 102 102 96 95 93 85 73 61 47 39 29 21 15 12 14 19 26 34 41 49 55 61 72 78 81 85 87 88 90 90 89 90
119 120 122 128 132 139 141 140 149 125 109 102 102 99 97 93 93 90 84 71 60 47 37 28 20 15 10 13 17 23 32 41 45 52 58 65 72 76 83 85 84 87 90 90 86
120 122 125 128 134 139 139 142 136 119 102 104 111 104 97 93 93 90 82 71 58 46 35 27 22 16 12 13 18 25 32 40 45 48 56 63 69 74 81 82 85 89 88 85 85
122 123 126 131 138 139 139 140 127 111 102 100 111 115 101 93 89 88 81 68 56 45 35 26 22 17 13 13 17 23 31 38 44 48 53 60 67 72 76 83 84 86 87 85 80
123 124 131 129 131 137 140 133 122 104 97 103 113 117 102 94 88 88 78 64 55 45 34 25 20 18 14 13 18 23 28 34 43 47 52 59 64 69 75 80 82 85 86 86 82
123 126 129 132 132 138 132 121 110 102 103 107 117 126 105 97 89 88 76 64 54 44 33 25 19 17 15 14 18 25 29 34 39 45 50 55 64 70 74 76 83 84 83 82 81
125 123 126 133 135 131 119 115 112 106 104 111 116 131 107 94 88 86 73 62 53 43 33 25 20 16 14 15 17 26 28 33 39 43 47 54 61 67 70 73 81 83 83 80 80

GFSSW_250_spd_249.txt.gz
Wind_Speed
60 64 67 69 73 77 79 83 88 95 98 104 107 110 115 120 119 117 100 82 77 70 66 61 59 63 62 61 60 67 64 67 72 75 79 86 84 87 93 100 95 92 88 82 80
63 65 69 70 74 78 82 85 90 96 100 107 114 115 123 123 125 116 92 83 75 67 62 57 60 60 61 59 61 63 62 67 71 72 75 86 84 85 88 97 97 94 92 83 80
63 68 70 72 75 79 83 87 93 99 103 111 117 119 126 130 130 110 90 79 71 65 60 56 55 57 59 58 56 58 63 66 63 63 72 79 80 83 85 92 93 94 91 87 82
65 67 73 78 76 82 84 88 95 102 108 114 120 124 131 134 129 106 92 76 67 67 63 58 55 56 57 57 54 56 60 61 64 64 69 75 77 80 83 89 90 92 90 86 84
71 70 75 78 77 83 86 91 98 106 112 118 124 123 134 137 120 116 94 75 72 72 66 62 59 54 53 50 51 54 56 59 64 64 69 74 76 78 83 88 89 92 88 86 85
70 72 77 79 82 83 89 94 103 110 115 118 123 128 138 136 123 127 101 80 78 71 70 68 63 56 47 43 44 46 49 54 57 61 66 68 75 75 83 89 89 89 90 87 84
71 73 77 79 85 85 90 99 104 111 117 120 125 129 135 134 139 127 105 89 86 82 79 73 67 57 46 39 34 34 36 42 48 57 66 69 74 77 81 83 87 87 89 88 85
72 74 78 81 84 88 93 97 107 113 117 123 125 132 136 141 138 133 106 93 91 89 86 78 69 57 43 37 31 28 27 31 37 49 61 69 74 78 81 79 84 85 87 89 91
72 75 78 81 85 89 96 101 111 114 120 123 128 134 135 137 146 143 122 104 98 94 89 79 68 54 42 36 31 26 23 24 32 44 54 66 75 78 80 84 82 84 88 91 94
75 75 77 79 87 90 97 105 113 115 121 125 131 133 137 135 144 142 124 110 102 96 92 79 66 52 42 35 28 23 20 23 29 40 51 58 71 77 78 81 78 84 89 93 93
77 76 79 81 85 92 101 108 113 117 123 124 131 133 135 141 148 136 125 119 107 98 91 78 64 50 41 32 23 19 19 22 26 34 44 56 71 73 78 82 87 88 90 93 95
77 78 81 85 88 95 100 112 115 120 124 126 132 137 142 136 145 137 125 120 109 102 88 74 63 48 38 28 19 14 17 21 27 34 44 53 64 69 77 81 86 95 95 94 101
76 79 84 87 91 98 104 110 114 121 125 126 131 139 140 133 139 137 125 120 111 100 90 73 59 46 35 26 15 10 16 23 28 35 46 54 62 78 86 88 94 96 96 97 104
79 82 85 89 92 100 104 113 117 122 127 130 135 140 137 137 139 139 126 119 110 100 91 73 58 45 33 23 13 9 17 22 27 35 46 54 69 78 86 88 95 99 101 103 104
82 82 87 90 96 103 109 113 117 122 127 131 135 143 141 139 139 142 129 117 104 100 90 71 56 45 31 22 13 9 16 21 27 37 45 55 71 80 92 89 96 105 105 104 108
82 85 90 94 97 105 110 114 120 125 128 133 136 141 138 139 138 134 127 112 101 95 87 70 54 44 31 21 12 8 14 21 28 37 46 57 68 79 86 87 95 101 104 106 107
83 87 93 97 100 106 113 115 120 124 130 135 137 137 138 136 135 126 128 113 104 91 84 69 52 42 30 20 11 7 14 22 29 38 45 56 65 76 87 90 95 102 106 106 112
87 91 96 98 102 110 111 116 122 125 130 136 140 139 135 130 133 127 122 112 101 85 79 68 50 39 30 20 12 7 14 23 30 38 47 56 63 74 83 88 94 101 107 109 110
91 95 96 99 106 112 113 118 124 126 130 135 139 137 133 133 129 125 123 105 97 81 74 63 48 35 28 19 13 6 14 23 31 40 46 52 62 70 77 88 93 100 100 100 111
94 96 98 103 108 111 115 121 125 127 132 137 137 134 131 128 120 120 116 98 84 80 67 56 46 32 25 19 13 8 13 21 29 35 41 48 56 65 74 83 93 95 95 99 105
95 97 99 104 108 114 117 121 124 129 134 134 137 134 135 120 112 112 103 100 83 68 62 53 45 30 23 18 14 9 14 21 28 35 42 47 53 60 68 76 82 89 95 98 104
94 98 101 108 110 118 121 121 124 129 136 135 132 133 126 117 114 103 90 87 80 69 61 49 41 29 20 17 14 11 14 19 26 33 40 47 52 57 64 73 77 81 87 94 98
99 102 105 110 115 118 120 121 128 129 133 131 132 132 126 112 105 92 82 72 72 62 55 47 38 27 19 15 14 12 14 18 27 35 41 48 54 59 65 70 73 76 80 85 95
100 105 107 114 118 120 120 121 126 129 135 130 127 126 123 111 95 79 78 68 62 62 53 45 36 26 19 14 14 14 15 19 25 34 40 47 54 60 65 68 75 73 76 81 86
104 108 115 118 117 120 122 125 128 128 130 129 124 120 115 108 87 68 67 58 52 56 49 43 34 27 17 15 14 17 15 19 24 31 38 44 52 58 65 72 74 75 78 80 83
108 114 117 118 120 120 121 123 131 132 131 125 121 123 107 94 75 63 69 54 53 53 48 40 32 26 16 15 14 17 18 21 24 29 37 44 51 56 63 68 71 76 79 79 79
115 117 119 120 120 120 122 127 131 130 129 127 122 115 99 81 74 68 62 55 46 48 45 39 31 25 17 15 15 18 20 21 26 30 36 43 50 55 61 68 71 74 75 77 76

GFSSW_250_spd_252.txt.gz
Wind_Speed
51 54 58 62 64 67 67 69 76 83 92 95 99 102 110 113 115 116 115 110 85 65 48 46 51 54 59 60 63 65 64 66 67 70 78 86 87 89 88 88 92 94 89 83 84
59 59 63 61 64 67 69 72 80 83 94 98 104 108 112 115 120 126 122 109 93 67 51 47 51 56 56 60 62 63 66 70 69 70 81 85 87 90 90 91 94 96 98 87 80
62 61 64 65 64 68 70 76 81 86 96 99 106 110 115 120 127 123 124 110 96 72 56 46 47 50 56 57 56 62 66 63 65 67 76 84 81 89 92 90 92 93 95 91 81
62 62 65 67 67 69 73 78 83 90 99 102 108 113 118 123 128 125 124 103 92 70 61 50 47 46 46 48 51 55 60 60 64 65 66 72 73 80 90 90 87 90 96 96 85
62 65 66 69 69 72 77 77 85 91 100 103 111 115 119 125 129 126 128 109 96 77 68 54 47 44 44 41 44 46 50 53 59 63 66 71 70 75 80 88 80 86 95 95 90
67 68 69 72 71 73 77 79 88 92 102 108 112 117 122 128 133 132 134 124 100 84 71 60 54 48 47 41 38 38 42 49 57 63 68 70 72 74 81 82 84 84 90 93 86
68 70 71 76 74 75 80 82 89 96 102 110 112 119 125 129 135 135 130 125 98 91 80 69 59 52 50 42 35 32 33 39 47 56 66 67 72 75 79 83 84 85 87 89 82
65 71 73 77 75 77 82 86 91 99 102 109 113 120 126 131 135 139 131 115 109 94 83 73 65 57 55 42 35 27 25 29 37 50 60 65 74 77 79 80 83 86 88 86 78
66 72 74 77 79 79 85 89 94 97 104 109 116 123 130 134 140 142 140 128 113 100 85 77 70 64 58 43 35 27 20 23 33 45 53 66 74 78 80 77 79 84 86 85 83
71 75 73 77 81 82 85 93 97 99 105 110 118 125 130 133 137 142 144 129 122 107 91 82 72 67 58 44 34 26 19 20 28 39 50 63 73 77 80 80 77 80 82 84 83
71 74 75 79 80 84 89 95 97 100 104 114 117 124 129 137 139 146 147 140 134 112 93 82 76 70 57 44 34 25 18 18 24 37 48 61 71 76 79 78 77 79 81 83 86
74 79 81 81 84 86 91 95 99 102 106 114 119 126 130 134 138 145 147 142 135 121 98 86 83 71 57 44 33 24 17 16 22 34 42 55 67 74 77 75 75 79 83 85 93
77 80 83 84 88 89 92 95 98 101 107 113 119 126 129 132 135 143 149 147 142 134 108 89 77 70 56 42 31 22 15 15 22 31 42 51 60 69 71 71 74 80 84 90 94
77 81 86 87 90 90 92 96 100 104 107 114 122 126 130 133 138 139 150 150 143 136 106 92 74 68 53 40 28 20 13 15 21 29 36 49 57 66 72 69 77 84 85 92 105
80 86 88 89 90 91 93 95 101 105 110 117 122 130 131 134 139 142 146 150 143 136 109 91 75 66 52 39 26 18 12 14 21 26 33 45 57 67 71 73 82 89 90 97 107
85 88 88 90 88 92 95 95 102 106 111 118 123 128 132 137 138 143 146 147 139 131 111 92 80 63 49 37 24 16 11 14 20 24 33 44 59 65 70 75 85 93 94 102 112
86 87 88 88 87 93 93 97 102 106 113 119 123 128 131 136 137 140 140 142 141 133 111 88 74 59 46 35 23 14 11 14 19 26 34 42 54 63 70 79 88 97 102 107 116
84 86 87 89 90 92 94 100 103 109 116 121 127 130 133 134 139 144 143 142 137 124 106 92 74 59 42 32 23 13 11 14 20 26 35 43 53 64 74 82 91 100 105 103 106
84 87 89 91 91 92 97 102 105 111 118 120 125 130 131 135 142 142 143 137 128 114 99 88 69 56 39 31 22 12 12 14 19 25 34 42 49 60 70 80 92 100 102 104 114
88 92 89 91 93 96 99 106 107 114 117 122 125 128 131 135 142 140 140 132 121 108 94 75 66 55 38 28 21 13 11 14 20 27 34 40 48 56 67 77 87 99 105 109 116
90 89 89 94 98 98 102 107 111 115 118 122 124 128 132 140 141 140 137 126 113 100 83 78 65 51 36 26 20 12 11 16 22 30 36 42 46 52 63 73 84 99 106 115 113
89 89 94 95 100 101 105 112 114 117 120 122 124 127 134 140 140 132 133 117 104 91 81 65 61 46 34 22 18 12 11 17 24 32 39 43 46 50 59 71 80 94 103 112 116
94 98 97 99 102 106 109 114 116 118 122 122 128 132 135 136 135 125 122 108 96 84 67 64 57 43 33 21 17 13 12 18 23 31 39 45 49 51 57 65 76 92 101 110 121
96 97 99 101 105 111 112 116 118 119 119 126 130 135 132 133 133 130 113 102 91 81 69 54 51 39 31 21 17 13 13 17 25 31 39 46 50 54 60 65 69 81 96 111 118
98 106 103 106 109 113 116 118 120 118 124 126 131 133 130 128 125 114 104 96 86 74 62 50 50 37 26 22 16 14 14 18 24 30 39 45 50 56 63 65 69 77 99 115 113
104 106 107 112 116 117 117 117 119 124 126 129 130 127 127 123 117 108 96 90 84 73 64 48 45 36 23 21 16 15 15 17 25 31 36 44 50 56 62 65 70 81 96 106 121
107 113 113 115 120 120 116 118 125 126 129 130 129 126 121 113 107 102 97 94 83 68 55 45 40 33 21 20 15 17 17 17 25 32 37 43 50 56 62 66 70 78 93 107 119

GFSSW_250_spd_258.txt.gz
Wind_Speed
44 50 53 54 55 54 59 66 70 76 78 79 79 80 79 83 88 93 99 104 108 110 96 104 114 114 84 54 46 44 52 58 59 54 57 61 74 73 75 74 67 72 77 69 67
44 49 52 54 55 56 64 68 75 76 77 79 80 80 82 87 91 96 105 107 111 116 115 114 123 108 94 52 41 42 51 53 53 52 51 56 68 79 79 74 68 74 74 74 70
45 48 49 53 56 61 66 70 72 74 77 79 82 82 87 92 94 103 107 113 116 119 115 111 116 116 83 49 39 40 48 51 51 51 51 52 63 69 77 78 74 77 75 75 73
45 50 51 54 60 66 69 70 76 76 79 82 85 86 90 96 99 106 110 117 121 120 122 125 129 119 83 52 38 38 43 48 48 51 54 55 61 66 73 78 77 81 78 74 77
46 52 48 55 62 70 72 73 75 79 80 85 89 91 93 99 102 107 114 120 121 125 127 129 133 122 90 55 40 35 40 45 45 49 53 58 61 64 72 78 79 83 81 82 78
46 51 53 57 63 69 74 76 78 80 85 88 91 95 97 102 107 111 117 121 123 123 130 134 135 125 94 62 46 40 38 41 41 45 52 59 64 68 75 81 83 85 84 81 80
47 51 53 56 65 69 75 78 82 86 87 89 95 97 100 105 108 112 120 123 128 132 137 137 134 129 88 61 49 42 38 38 40 42 49 60 67 77 74 80 83 81 89 85 84
52 54 57 62 69 73 77 81 83 89 88 90 97 101 103 107 112 114 121 131 134 138 137 141 140 128 97 61 51 44 38 36 37 39 47 58 67 71 74 79 80 79 89 88 85
52 58 62 67 70 74 79 80 89 93 88 92 98 103 104 108 116 123 125 129 135 139 141 139 142 132 108 70 51 44 38 31 32 36 45 52 63 71 75 83 83 87 90 94 88
57 65 68 69 72 76 82 85 89 90 93 96 100 103 104 110 119 125 129 134 140 143 144 139 143 129 100 69 54 44 36 27 25 31 40 47 56 65 74 83 86 90 93 95 88
62 66 69 71 73 78 83 87 88 90 93 98 104 104 109 114 121 127 131 133 138 142 145 144 144 131 94 69 52 45 33 25 22 26 36 42 50 57 68 79 85 88 92 90 87
64 68 70 70 74 79 85 89 91 96 96 101 105 106 112 115 121 125 132 138 140 143 148 150 145 128 95 70 51 43 32 23 19 22 31 36 43 53 62 76 81 84 83 86 88
66 68 69 74 77 82 89 90 92 96 96 103 107 110 113 115 122 126 131 138 142 145 149 153 142 136 94 69 48 38 30 23 18 19 25 31 39 50 59 70 76 80 83 88 88
65 69 74 79 82 83 89 88 93 95 99 105 106 109 115 118 123 129 138 142 141 145 150 151 143 133 88 66 46 36 27 23 16 17 22 30 36 47 54 63 71 75 82 86 89
68 73 79 77 81 81 90 88 95 97 103 106 109 114 115 120 126 134 138 143 146 149 153 152 143 123 82 61 46 36 26 20 14 15 18 26 32 42 50 59 66 71 78 83 86
71 76 80 83 82 85 92 92 98 101 105 109 112 115 118 122 128 132 139 143 150 153 155 154 144 117 78 61 44 34 25 18 12 13 15 20 27 37 47 55 63 70 76 80 83
75 81 83 84 85 88 92 92 100 105 107 109 111 114 119 124 128 132 137 140 147 154 157 150 145 105 73 62 40 31 23 15 10 10 13 18 24 34 47 54 60 70 79 85 80
79 81 82 86 89 89 90 95 101 106 108 110 113 117 122 124 129 135 139 145 153 158 157 150 133 95 70 58 35 28 21 13 8 11 15 21 27 38 50 58 65 72 77 79 79
81 85 85 92 88 90 93 100 103 107 109 112 115 117 124 128 133 138 143 148 153 155 156 142 119 91 69 50 33 25 17 11 9 13 18 25 34 42 55 63 70 73 73 75 79
83 87 90 90 89 92 99 100 105 107 113 115 116 119 124 130 135 140 145 150 156 152 154 148 113 91 65 45 30 22 14 9 10 15 20 29 39 50 60 68 73 77 79 85 84
89 90 93 92 94 96 100 102 107 112 114 117 118 121 127 132 137 143 150 152 155 158 150 142 104 86 63 41 27 19 13 9 12 16 22 33 45 57 67 71 74 77 82 85 86
90 91 94 94 93 100 103 106 110 112 114 117 118 122 126 132 138 144 149 152 157 156 147 116 100 84 60 39 23 16 11 10 15 21 27 37 51 63 71 76 78 80 83 88 89
89 90 93 92 99 102 105 108 110 112 115 116 120 123 127 133 140 147 153 155 150 149 127 109 100 83 54 36 19 12 9 11 18 24 31 42 55 67 76 82 85 87 92 96 99
92 91 97 99 103 106 108 108 111 113 115 118 121 124 129 134 142 148 149 147 156 140 123 103 96 78 50 33 17 9 8 13 21 26 35 47 62 73 80 86 90 93 100 103 107
96 96 98 102 107 109 107 108 109 112 115 118 122 126 131 139 146 148 145 146 149 126 112 107 87 72 46 30 15 9 9 16 24 30 38 50 65 78 84 89 94 101 110 112 112
100 98 101 105 107 105 104 106 111 112 116 119 123 130 135 138 145 143 145 136 124 117 107 101 85 62 41 28 12 9 10 19 27 34 42 53 69 82 88 93 100 110 114 115 112
101 100 101 101 105 103 104 111 112 115 118 121 127 132 137 142 139 130 123 120 121 109 105 96 78 51 37 26 12 9 12 21 29 35 45 55 72 84 91 98 108 117 120 119 118

GFSSW_250_spd_261.txt.gz
Wind_Speed
38 38 41 43 45 52 55 58 61 67 74 76 79 79 76 79 82 86 91 94 99 104 107 104 109 117 117 123 94 62 56 50 44 44 36 27 40 52 60 61 55 59 63 65 67
40 35 40 42 45 49 58 62 65 68 73 79 83 80 80 83 87 90 94 99 103 107 110 111 115 121 127 119 87 56 51 44 42 41 39 31 37 46 58 63 60 68 68 66 62
38 37 41 43 47 53 59 65 68 70 76 81 79 83 85 88 92 95 99 102 107 112 114 119 118 121 123 107 86 57 45 42 40 41 41 34 37 44 55 62 70 68 68 68 62
37 38 41 44 50 56 62 65 70 74 77 81 82 87 90 94 97 102 103 106 111 115 117 124 114 125 124 104 81 53 45 38 36 42 42 38 40 47 54 62 69 69 72 66 68
41 42 45 47 54 59 63 66 72 76 78 84 87 89 93 100 101 104 108 111 115 119 123 116 123 122 134 101 71 55 41 35 34 41 44 42 42 50 56 61 67 69 73 74 71
42 44 48 51 55 60 65 67 71 78 79 86 87 90 95 101 105 110 112 113 116 121 124 123 118 128 122 99 65 51 41 35 32 34 42 42 44 50 54 60 68 69 75 71 74
43 46 49 52 56 62 67 72 76 80 79 87 91 94 100 104 106 111 117 115 119 126 128 127 121 130 120 102 68 51 43 34 29 31 38 43 46 49 54 64 72 74 70 74 78
46 46 52 54 58 63 68 75 78 82 79 86 93 96 103 107 110 112 118 123 125 129 132 132 135 128 121 115 68 51 45 33 32 26 32 41 45 48 54 59 70 69 75 76 74
46 51 55 58 60 64 69 77 77 85 82 88 92 98 105 110 114 118 121 123 127 131 135 136 137 134 126 104 67 48 44 33 31 28 30 36 45 51 61 64 69 71 80 78 74
50 53 57 59 61 65 72 75 84 84 85 90 94 100 107 111 116 121 125 129 130 133 135 140 140 133 128 87 65 49 42 32 29 27 31 37 45 53 61 65 68 72 80 86 78
53 57 60 63 63 69 73 78 85 87 91 93 94 100 108 115 117 123 126 129 133 138 140 141 140 140 124 86 60 50 40 33 29 26 30 36 42 51 58 66 72 74 83 89 84
55 57 63 66 67 69 73 78 84 88 92 95 97 101 108 114 119 122 127 130 133 136 142 144 141 138 133 85 60 50 41 34 28 24 26 32 38 47 58 65 73 77 84 87 82
59 64 66 68 71 74 76 80 86 91 92 98 99 104 109 113 119 123 127 133 135 140 145 148 144 146 127 78 60 50 40 34 25 22 22 27 37 46 54 61 68 77 80 85 82
64 64 65 68 70 73 78 83 88 90 95 101 101 101 111 115 121 125 131 135 136 141 148 148 152 142 104 69 57 49 37 31 21 18 19 25 35 44 51 56 62 74 78 85 81
67 65 68 69 73 75 80 84 89 94 99 100 101 109 111 116 122 129 132 140 140 143 147 151 158 136 89 70 57 46 34 28 18 12 16 23 33 41 48 53 58 67 77 79 78
74 78 76 74 75 78 83 87 92 95 98 98 104 109 114 119 123 128 133 137 141 146 148 154 156 131 86 67 54 41 32 26 15 11 13 20 30 36 46 51 58 62 67 72 81
76 77 77 76 78 82 87 90 94 96 100 100 103 108 114 119 122 126 132 135 139 143 149 153 152 122 78 67 52 37 30 23 13 10 14 23 29 36 40 47 52 60 69 72 82
79 78 78 80 84 83 88 90 93 97 102 104 105 111 115 119 124 129 133 138 142 148 150 157 148 103 77 73 49 33 28 20 10 9 15 23 29 34 38 44 51 56 67 76 85
78 81 80 80 82 84 87 90 93 97 102 105 107 112 117 122 127 132 136 140 145 149 155 154 136 93 77 71 46 31 25 17 9 9 17 24 29 36 38 45 50 60 70 79 87
80 81 82 85 87 87 90 90 95 97 103 107 110 115 118 122 125 132 137 141 147 151 155 149 127 95 82 70 42 29 22 14 8 9 17 25 31 38 41 44 57 63 71 80 86
83 87 87 87 91 91 89 93 93 99 104 107 113 118 119 123 127 132 138 142 148 153 152 144 117 91 86 61 38 25 20 10 7 11 17 23 33 38 43 53 59 66 70 75 79
89 90 88 91 89 92 94 94 96 103 106 109 114 116 120 122 127 132 140 144 151 156 157 140 110 92 77 56 35 22 17 7 8 15 23 27 32 39 52 60 66 70 75 77 79
89 88 92 90 94 93 95 95 98 103 104 110 112 117 120 123 127 134 140 146 153 154 150 136 107 92 71 49 30 19 14 8 12 19 26 30 35 45 57 64 69 72 76 76 75
86 88 89 90 93 95 97 99 101 104 106 108 113 117 121 123 128 136 141 147 151 153 147 123 97 92 68 41 25 15 12 11 16 23 29 33 40 53 63 67 72 77 78 79 79
87 92 93 94 96 97 101 104 102 105 108 109 114 117 120 125 132 138 142 146 148 148 133 116 94 87 61 36 22 13 12 13 20 26 32 37 47 61 68 70 73 77 81 78 78
91 91 94 96 97 97 98 98 101 103 107 111 115 117 121 124 131 135 138 140 143 141 123 106 92 79 56 34 19 12 14 17 23 30 34 41 52 66 72 72 72 75 84 84 82
95 95 92 92 95 99 99 98 97 105 108 112 113 119 124 127 129 133 133 132 137 124 115 103 87 70 50 33 20 12 16 20 26 33 37 45 54 68 73 74 78 79 86 90 92

GFSSW_250_spd_264.txt.gz
Wind_Speed
27 30 31 34 37 42 46 51 54 57 65 68 68 66 71 76 81 85 91 94 95 95 97 99 103 106 111 118 118 105 73 61 50 50 35 22 34 42 45 54 53 63 64 68 70
28 29 36 38 39 44 47 52 55 59 66 66 72 71 75 80 84 87 91 97 103 102 104 105 108 115 118 122 129 120 71 57 48 43 33 23 32 41 45 48 60 66 66 66 69
35 37 42 41 45 47 51 56 58 59 65 69 77 73 81 84 86 88 92 100 105 108 114 116 114 115 119 127 128 107 66 49 45 37 32 23 32 41 48 53 64 71 68 66 64
37 39 42 43 46 49 53 59 59 62 68 72 76 78 85 88 94 96 99 102 108 112 116 119 119 122 121 131 136 103 62 48 41 31 31 23 33 43 52 58 61 66 72 68 65
40 41 41 43 47 51 55 60 62 66 68 76 78 82 88 93 98 100 102 107 111 115 119 122 128 131 127 130 142 93 61 44 38 30 30 26 31 41 51 53 62 67 66 69 69
43 44 49 46 49 53 59 60 64 69 73 77 78 83 89 94 100 104 106 109 113 119 122 124 127 131 136 135 134 83 60 42 35 27 27 30 35 43 50 55 59 64 69 68 71
48 53 53 51 51 53 60 62 67 70 74 77 81 87 93 97 101 105 108 109 115 122 126 128 131 130 135 140 124 78 56 40 33 26 25 31 34 38 44 55 62 67 68 73 75
54 55 58 58 54 56 61 63 67 73 75 79 84 90 97 100 102 105 110 116 119 125 128 135 137 135 137 139 116 83 56 42 33 25 24 31 39 46 51 59 62 66 76 68 71
51 54 55 55 54 57 62 66 69 73 76 81 85 92 98 101 106 108 111 116 122 129 132 135 137 136 138 141 107 75 52 40 30 26 21 31 39 47 53 61 69 70 72 66 72
52 53 53 57 57 61 67 72 72 79 80 87 90 94 96 100 105 110 116 121 125 131 131 136 135 137 140 145 104 73 51 36 26 20 22 29 35 47 55 62 72 74 72 72 72
52 56 57 59 63 66 71 75 81 83 86 88 92 95 98 103 105 111 118 125 129 132 136 139 137 142 150 143 100 75 53 36 24 21 18 24 33 43 55 64 70 78 76 72 69
56 58 60 63 65 68 72 76 79 83 85 88 93 96 98 99 105 113 120 125 128 135 138 142 143 145 145 139 95 72 52 36 24 20 17 21 28 40 48 57 67 76 77 76 72
60 62 63 65 67 71 71 76 82 83 85 89 91 96 98 100 105 113 120 127 132 136 142 143 145 147 149 134 88 69 51 34 22 19 19 22 30 39 49 58 66 72 78 80 78
64 66 66 67 70 71 74 76 78 82 83 88 91 94 97 102 107 115 123 128 134 140 144 148 148 148 146 124 82 67 50 31 19 19 20 22 29 36 48 56 64 71 77 84 85
64 66 66 70 73 73 73 76 79 82 87 90 92 95 97 104 111 118 125 132 136 140 145 151 151 150 146 111 77 62 48 29 19 19 20 22 28 33 43 50 57 67 80 86 90
68 69 69 71 71 72 73 78 80 87 88 92 93 96 102 108 111 119 126 133 139 144 149 151 151 153 147 100 74 58 44 27 19 15 20 21 24 30 36 40 51 59 77 88 88
69 71 72 73 74 75 75 79 84 91 92 94 94 99 104 107 114 118 125 131 136 140 146 150 153 152 153 96 72 58 39 24 18 16 15 22 24 31 35 42 50 55 67 79 85
69 72 73 75 75 76 79 82 87 91 93 95 97 102 107 111 114 119 127 132 138 144 149 150 155 147 147 90 67 55 35 23 16 14 14 21 24 31 38 45 54 58 65 72 76
72 72 72 76 80 83 81 83 86 90 92 97 100 106 110 111 116 121 128 133 138 144 150 155 154 150 137 86 67 49 32 21 14 13 11 19 23 31 39 45 50 58 69 73 74
78 76 74 78 83 84 85 84 86 91 95 101 103 106 109 114 117 122 128 135 140 147 155 155 158 159 115 81 66 46 30 19 13 13 13 18 23 33 40 44 48 59 67 74 77
83 78 80 81 85 83 83 83 89 94 96 101 103 105 111 114 117 124 129 135 141 146 152 152 150 143 102 79 64 44 29 17 14 16 17 17 23 32 37 43 50 59 65 71 76
88 87 85 88 88 88 90 93 95 94 97 101 106 107 111 114 118 124 128 134 142 148 152 153 154 129 100 83 65 42 27 17 17 17 16 16 22 27 37 45 50 58 64 72 80
88 90 91 90 90 90 90 93 95 95 95 103 103 106 111 114 118 123 127 133 141 146 152 153 154 121 92 79 59 39 26 19 21 15 15 18 22 30 37 45 51 59 64 71 76
90 89 89 93 89 90 92 94 94 94 97 101 104 106 110 113 118 122 127 134 142 146 149 148 138 112 84 80 57 36 25 22 21 14 16 18 29 36 39 46 55 60 65 69 73
95 90 87 92 92 93 94 96 93 93 95 99 104 107 110 113 117 120 125 135 140 140 139 138 122 100 83 70 51 34 24 24 22 15 16 22 33 38 43 50 56 59 62 68 70
90 89 86 84 86 92 93 91 89 94 97 102 105 108 109 114 117 121 128 130 135 134 132 127 113 96 85 70 48 33 22 24 21 18 18 28 33 39 46 51 55 61 66 70 72
93 88 87 87 84 90 86 91 93 94 97 98 100 105 111 112 117 120 126 130 126 122 123 115 109 94 86 66 46 33 20 24 22 21 21 31 37 43 48 54 60 67 70 69 72

GFSSW_250_spd_270.txt.gz
Wind_Speed
44 46 49 48 45 46 46 49 50 54 56 58 60 61 63 69 68 72 75 79 82 84 90 96 95 99 105 114 116 125 130 134 103 87 70 57 49 43 37 42 44 47 61 59 63
48 48 50 48 48 45 45 48 50 54 57 58 58 61 65 68 71 76 78 81 85 90 95 96 101 108 113 117 123 131 130 130 104 88 69 53 40 35 33 41 45 51 61 59 63
51 52 50 50 47 47 48 48 51 53 54 55 58 61 66 69 75 78 82 84 89 94 98 103 107 112 117 119 128 135 139 133 98 80 64 49 33 27 37 42 44 51 57 63 68
53 51 51 48 45 46 47 49 51 53 54 60 63 66 70 73 77 79 82 86 94 100 105 107 112 116 122 127 132 137 143 124 90 74 52 40 24 22 32 43 48 51 57 68 74
48 50 47 44 46 47 47 50 52 53 58 62 66 69 73 74 75 80 86 93 100 103 108 112 116 120 124 130 134 140 141 111 88 65 45 33 16 22 33 42 46 51 56 69 76
47 47 42 44 46 50 50 54 56 58 61 65 69 71 74 78 79 82 87 95 101 106 110 115 120 122 127 132 138 142 144 95 75 54 38 24 15 27 34 44 45 53 60 73 80
45 44 45 44 47 53 53 56 61 62 64 68 73 74 75 78 83 84 90 97 104 107 114 120 125 128 133 138 139 142 134 87 66 47 32 17 16 27 33 43 47 58 66 76 88
44 45 46 49 50 52 57 58 61 64 68 72 74 76 76 78 83 89 92 99 105 111 118 123 129 132 136 142 147 152 134 89 60 42 28 14 17 26 37 42 47 56 71 79 88
48 48 50 53 53 55 59 59 61 64 69 71 76 76 79 80 83 89 94 103 109 114 122 126 132 136 137 143 149 155 144 87 57 40 23 10 16 29 40 44 49 57 67 76 85
52 52 54 55 55 57 60 62 64 66 67 72 76 80 82 85 89 93 97 104 111 116 124 129 134 138 141 145 144 153 126 83 54 36 18 10 18 31 44 49 53 58 63 70 83
56 58 58 57 56 61 63 65 66 69 67 71 75 78 81 85 89 95 101 106 113 119 126 131 135 139 142 145 148 159 127 80 54 35 16 8 18 32 47 54 59 67 73 80 88
59 60 60 59 60 63 65 67 69 69 69 72 76 78 78 85 93 99 103 108 114 121 128 132 138 143 144 149 154 150 115 81 51 33 15 8 17 31 50 56 62 70 76 83 93
60 60 61 63 57 64 67 68 68 69 69 73 76 78 82 88 93 95 104 109 115 122 128 135 140 145 145 151 154 146 111 81 52 31 14 9 19 32 50 59 62 67 78 85 95
62 64 67 65 65 65 67 68 69 71 75 77 77 80 83 89 92 98 104 109 115 122 129 134 140 144 149 151 145 130 98 78 54 31 15 9 20 34 50 61 65 70 75 86 94
64 63 67 68 70 69 67 66 70 74 73 77 80 82 86 91 96 98 103 110 114 120 126 133 140 143 147 149 145 112 90 77 53 29 13 8 19 35 49 62 68 74 78 86 96
63 65 71 68 72 71 70 71 73 72 73 77 79 84 87 91 96 101 104 109 112 118 124 132 142 146 145 141 132 104 80 70 52 29 13 6 19 36 47 57 69 70 75 91 103
64 73 72 73 70 71 71 71 73 78 77 78 81 85 90 94 96 99 101 105 107 115 121 132 139 145 144 145 129 103 73 65 51 30 13 5 18 36 49 55 66 74 76 87 102
65 71 74 75 74 74 72 75 76 80 82 82 84 89 92 92 94 97 102 106 109 116 122 130 136 140 139 138 123 102 72 63 51 30 13 4 16 31 46 59 65 73 79 87 105
72 79 80 73 74 74 73 74 75 84 89 82 85 86 89 90 93 99 104 105 109 114 122 128 136 139 133 132 113 98 75 61 51 26 13 6 14 26 40 54 64 72 78 86 101
75 76 77 73 75 73 75 74 77 77 82 83 86 87 88 91 93 100 102 102 109 111 119 124 132 135 134 136 115 97 73 58 46 28 12 7 14 25 35 47 62 75 83 88 98
75 79 77 75 77 75 77 79 78 77 80 86 85 87 91 92 96 100 101 101 108 108 115 121 127 129 127 128 116 92 79 56 43 28 13 8 15 24 35 45 61 70 77 85 95
78 80 77 76 75 76 79 83 78 77 81 85 83 88 87 93 95 97 90 101 102 106 111 118 123 126 128 128 114 89 74 57 40 27 14 9 15 24 33 44 54 68 75 82 94
76 77 75 72 77 80 82 82 82 88 89 89 88 84 86 91 92 91 97 96 99 103 109 117 121 121 128 126 112 88 71 61 37 26 15 9 15 23 33 40 50 62 79 84 94
77 75 76 78 83 88 83 78 90 90 82 80 82 84 84 88 90 92 94 97 94 103 108 116 120 122 126 123 110 95 75 58 33 27 15 9 15 22 31 41 49 57 69 86 96
81 85 85 92 88 84 86 89 89 80 77 75 80 76 82 84 87 93 91 92 96 104 108 114 119 122 127 121 111 96 74 54 31 25 16 10 15 21 30 37 47 58 67 78 96
89 95 98 94 88 88 88 94 84 77 74 81 74 75 79 82 89 86 91 92 96 103 108 109 115 121 124 119 107 95 67 62 35 25 15 12 15 19 27 33 41 50 63 74 89
96 96 96 93 91 85 90 85 74 75 78 75 75 77 78 81 84 86 89 93 97 102 107 106 110 121 119 116 101 88 75 47 34 24 15 12 16 18 23 31 38 46 56 69 83

GFSSW_250_spd_273.txt.gz
Wind_Speed
46 52 45 49 47 47 44 42 42 45 48 49 50 54 55 55 58 63 67 70 72 76 79 83 84 90 98 102 111 117 123 127 120 110 92 62 56 58 53 52 47 47 46 51 57
51 49 46 47 46 45 45 43 44 46 47 49 54 55 57 61 64 67 70 72 75 80 84 89 93 98 103 109 116 124 129 130 133 119 74 57 49 49 38 37 36 38 38 48 55
49 51 50 45 44 44 45 43 47 44 48 52 55 56 60 65 66 70 73 76 80 84 89 93 99 104 108 113 121 128 130 133 135 98 67 60 47 33 28 31 37 38 41 48 61
48 46 43 43 44 43 47 45 44 47 51 55 58 60 63 66 69 72 74 79 83 88 94 98 104 110 115 119 126 131 139 133 115 86 67 55 42 26 26 27 35 37 48 60 66
41 37 40 41 40 43 46 45 48 49 54 57 60 63 65 68 71 73 77 80 84 90 99 105 109 115 119 122 129 132 137 132 110 77 59 50 33 23 24 28 32 39 52 65 69
42 39 37 38 40 44 45 48 50 52 54 59 63 66 68 69 71 76 79 83 88 96 101 108 113 119 123 126 133 135 137 136 99 74 54 43 27 17 23 28 33 39 50 65 69
41 38 38 39 43 46 48 52 54 55 57 62 65 68 72 72 72 74 80 84 91 99 105 113 117 122 127 128 130 140 141 139 100 71 47 34 19 19 23 29 34 41 47 60 70
43 43 41 44 47 49 52 54 54 57 59 61 66 69 71 74 77 80 82 85 93 101 107 118 117 123 129 132 141 142 145 128 95 67 41 27 14 19 24 31 36 41 47 57 64
45 43 41 43 48 51 51 55 57 59 61 62 68 71 73 74 79 82 86 90 97 104 113 119 122 126 132 136 140 144 148 121 89 63 36 21 12 21 27 33 36 42 45 53 59
49 48 49 48 47 51 53 54 57 62 63 65 69 72 72 75 78 80 87 91 97 108 114 117 121 128 133 135 136 133 142 119 84 60 33 16 10 20 25 32 36 42 46 55 67
50 50 51 49 51 48 54 60 63 63 65 66 72 72 74 77 80 85 87 91 99 105 110 115 121 127 133 138 140 142 147 117 82 57 29 11 9 20 24 33 39 47 53 60 75
55 55 54 56 57 59 59 61 61 64 68 69 73 76 77 79 84 87 92 94 98 103 108 116 121 130 138 141 141 142 138 110 78 57 26 8 8 20 24 34 41 48 54 70 82
63 62 60 61 62 64 63 61 65 67 69 69 71 74 75 81 88 92 94 95 97 103 110 116 123 131 136 141 145 142 127 104 75 55 26 9 8 20 27 36 41 49 60 73 96
66 58 63 64 55 61 68 63 60 70 67 70 72 73 77 80 85 91 89 93 96 105 110 114 122 127 135 141 138 137 120 99 69 53 26 7 8 21 30 38 42 52 70 81 105
68 71 70 73 69 68 70 63 65 68 67 71 71 75 78 79 85 84 87 92 96 102 108 113 121 123 133 136 137 129 118 91 64 48 26 9 8 22 34 40 45 59 74 92 110
72 73 73 76 72 68 65 60 66 69 74 74 73 74 75 79 87 86 89 93 98 101 107 112 118 125 133 136 134 127 110 84 59 46 25 11 11 22 35 45 47 60 82 101 115
73 74 73 75 70 68 67 63 69 69 75 74 72 75 75 81 86 88 94 99 95 96 105 109 115 122 123 131 136 125 104 81 59 45 24 11 15 22 35 47 50 62 89 108 114
74 74 74 75 74 67 66 66 72 75 77 73 71 77 75 81 84 93 99 93 93 99 104 107 112 120 128 127 127 121 103 84 60 44 28 11 16 23 33 45 53 65 90 114 114
80 77 74 71 72 69 73 72 70 74 73 74 75 72 78 81 84 93 94 89 92 98 102 107 112 120 124 128 127 122 103 87 59 45 27 13 17 25 32 44 57 65 89 110 115
84 81 78 71 71 75 72 73 74 73 75 75 71 73 74 82 85 96 87 90 92 96 97 104 111 116 120 126 128 114 104 92 58 46 27 12 18 26 32 44 60 67 86 106 113
80 82 79 79 82 74 76 72 70 71 76 74 70 75 81 83 88 93 86 90 92 91 97 99 111 113 118 116 116 116 105 86 56 45 27 14 18 28 36 44 60 71 85 102 112
77 81 79 78 78 77 74 72 74 73 74 69 72 78 82 83 88 80 84 86 89 90 94 98 106 110 114 113 113 108 113 83 61 48 26 15 17 27 37 45 58 73 83 97 111
79 73 74 74 69 70 70 69 71 70 73 75 80 83 81 84 84 78 85 87 86 86 90 96 104 108 110 113 116 109 115 86 61 52 29 16 18 25 35 45 57 71 86 97 107
92 77 73 76 78 75 72 77 79 79 78 78 79 80 81 84 81 75 81 81 86 86 88 99 104 104 108 109 116 114 117 88 66 52 31 17 18 25 35 45 55 67 87 98 108
94 86 82 75 78 78 81 83 81 82 81 83 83 80 78 77 76 78 79 82 83 84 90 97 100 101 107 110 113 114 116 87 65 48 32 17 18 24 33 43 54 64 76 96 108
87 90 86 84 80 81 81 81 82 83 84 78 79 77 71 69 74 78 77 79 81 84 92 97 96 100 106 108 109 116 105 79 61 46 33 18 17 24 32 41 49 64 73 90 106
81 86 87 84 83 75 76 78 77 76 79 79 75 74 72 69 74 73 77 78 78 85 90 94 95 99 101 105 111 112 101 73 58 39 26 18 16 24 30 38 46 58 74 89 103